Mura





Hora UTC 17:05
Temperatura 10.8 ºC
Humedad 75.0 %
Presión 1006.6 hPa
Pluja 0.0 mm
Velocidad viento 0.0 km/h
Dirección viento

Datos diarios 2021-12-04



Hora UTC (invierno +1h; verano +2h)
Temperatura (ºC) Humedad (%) Presión (hPa) Velocidad viento (km/h) Precipitación (mm)
Hora UTC Aire Humedad Presión Vel. Dir. Vel. Max Dir. Intent. máx 5 min.
00:05 2.2 81.0 1013.4 0.0 0.0 0.0
00:15 2.3 80.0 1013.4 0.0 0.0 0.0
00:25 2.3 81.0 1013.3 0.0 0.0 0.0
00:35 2.6 79.0 1013.3 0.0 0.0 0.0
00:45 2.7 80.0 1013.3 0.0 1.6 0.0
00:55 2.9 79.0 1012.9 0.0 1.6 0.0
01:05 3.1 79.0 1012.9 0.0 1.6 0.0
01:15 3.3 79.0 1012.7 0.0 1.6 0.0
01:25 3.3 79.0 1012.4 0.0 1.6 0.0
01:35 3.5 79.0 1012.4 0.0 1.6 0.0
01:45 3.7 79.0 1012.5 0.0 1.6 0.0
01:55 3.9 78.0 1012.5 0.0 1.6 0.0
02:05 4.1 79.0 1012.5 0.0 1.6 0.0
02:15 4.2 79.0 1012.6 0.0 1.6 0.0
02:25 4.6 77.0 1012.4 0.0 1.6 0.0
02:35 5.1 76.0 1012.4 1.6 6.4 0.0
02:45 5.6 77.0 1012.3 0.0 6.4 0.0
02:55 6.0 77.0 1011.9 1.6 9.7 0.0
03:05 6.3 78.0 1011.9 1.6 9.7 0.0
03:15 6.4 79.0 1011.8 1.6 9.7 0.0
03:25 6.6 80.0 1011.7 0.0 9.7 0.0
03:35 6.7 80.0 1011.7 3.2 11.3 0.0
03:45 6.6 80.0 1011.5 0.0 11.3 0.0
03:55 6.6 81.0 1011.2 0.0 11.3 0.0
04:05 6.5 81.0 1011.2 1.6 11.3 0.0
04:15 6.5 81.0 1011.4 1.6 11.3 0.0
04:25 6.4 81.0 1011.2 1.6 11.3 0.0
04:35 6.3 81.0 1011.2 0.0 11.3 0.0
04:45 6.2 81.0 1011.2 1.6 11.3 0.0
04:55 6.2 81.0 1011.1 3.2 11.3 0.0
05:05 6.1 81.0 1011.1 0.0 11.3 0.0
05:15 6.1 81.0 1011.0 0.0 11.3 0.0
05:25 6.1 81.0 1011.3 3.2 11.3 0.0
05:35 6.1 81.0 1011.3 1.6 11.3 0.0
05:45 6.1 81.0 1011.3 0.0 11.3 0.0
05:55 6.1 81.0 1011.1 0.0 11.3 0.0
06:05 6.2 81.0 1011.1 0.0 11.3 0.0
06:15 6.2 81.0 1011.1 0.0 11.3 0.0
06:25 6.2 81.0 1011.2 0.0 11.3 0.0
06:35 6.2 81.0 1011.2 1.6 11.3 0.0
06:45 6.2 81.0 1011.1 0.0 11.3 0.0
06:55 6.2 81.0 1011.0 0.0 11.3 0.0
07:05 6.2 81.0 1011.0 0.0 11.3 0.0
07:15 6.0 81.0 1010.9 0.0 11.3 0.0
07:25 5.9 81.0 1010.9 0.0 11.3 0.0
07:35 6.0 81.0 1010.9 3.2 11.3 0.0
07:45 6.3 80.0 1010.8 4.8 17.7 0.0
07:55 6.5 81.0 1010.8 1.6 17.7 0.0
08:05 6.7 81.0 1010.8 1.6 17.7 0.0
08:15 6.8 81.0 1010.7 9.7 24.1 0.0
08:25 7.0 81.0 1010.7 9.7 27.4 0.0
08:35 7.2 82.0 1010.7 8.0 27.4 0.0
08:45 7.2 81.0 1010.5 6.4 27.4 0.0
08:55 7.3 81.0 1010.3 4.8 27.4 0.0
09:05 7.4 81.0 1010.3 3.2 27.4 0.0
09:15 7.6 81.0 1010.2 4.8 27.4 0.0
09:25 7.9 81.0 1010.2 6.4 27.4 0.0
09:35 8.1 80.0 1010.2 4.8 27.4 0.0
09:45 8.3 80.0 1010.2 6.4 27.4 0.0
09:55 8.6 80.0 1010.1 1.6 27.4 0.0
10:05 8.9 79.0 1010.1 1.6 27.4 0.0
10:15 9.2 78.0 1009.7 3.2 27.4 0.0
10:25 9.6 77.0 1009.6 1.6 27.4 0.0
10:35 9.7 76.0 1009.6 9.7 27.4 0.0
10:45 9.9 76.0 1009.3 9.7 32.2 0.0
10:55 10.1 75.0 1009.3 11.3 32.2 0.0
11:05 10.2 74.0 1009.3 12.9 32.2 0.0
11:15 10.4 73.0 1008.7 16.1 32.2 0.0
11:25 10.7 73.0 1008.3 16.1 37.0 0.0
11:35 10.9 72.0 1008.3 16.1 37.0 0.0
11:45 11.1 72.0 1008.0 16.1 37.0 0.0
11:55 11.2 71.0 1007.9 14.5 37.0 0.0
12:05 11.4 71.0 1007.9 12.9 37.0 0.0
12:15 11.6 70.0 1007.4 6.4 37.0 0.0
12:25 11.7 70.0 1007.1 6.4 37.0 0.0
12:35 11.9 69.0 1007.1 11.3 37.0 0.0
12:45 11.8 69.0 1007.0 12.9 37.0 0.0
12:55 11.8 70.0 1007.3 8.0 37.0 0.0
13:05 11.8 70.0 1007.3 3.2 37.0 0.0
13:15 11.7 70.0 1007.3 4.8 37.0 0.0
13:25 11.5 70.0 1007.3 3.2 37.0 0.0
13:35 11.3 71.0 1007.3 4.8 37.0 0.0
13:45 11.2 72.0 1006.8 3.2 37.0 0.0
13:55 11.1 72.0 1006.8 1.6 37.0 0.0
14:05 11.0 72.0 1006.8 1.6 37.0 0.0
14:15 10.9 73.0 1006.9 0.0 37.0 0.0
14:25 10.9 73.0 1006.7 0.0 37.0 0.0
14:35 10.9 73.0 1006.7 0.0 37.0 0.0
14:45 10.9 73.0 1006.7 1.6 37.0 0.0
14:55 10.8 73.0 1006.7 3.2 37.0 0.0
15:05 10.8 73.0 1006.7 3.2 37.0 0.0
15:15 10.8 74.0 1006.6 1.6 37.0 0.0
15:25 10.8 74.0 1006.7 0.0 37.0 0.0
15:35 10.8 74.0 1006.7 0.0 37.0 0.0
15:45 10.8 74.0 1006.7 3.2 37.0 0.0
15:55 10.8 75.0 1006.7 1.6 37.0 0.0
16:05 10.8 75.0 1006.7 0.0 37.0 0.0
16:15 10.9 74.0 1006.7 6.4 37.0 0.0
16:25 11.0 74.0 1006.6 3.2 37.0 0.0
16:35 11.0 74.0 1006.6 3.2 37.0 0.0
16:45 11.0 75.0 1006.8 1.6 37.0 0.0
16:55 10.9 75.0 1006.6 0.0 37.0 0.0
17:05 10.8 75.0 1006.6 0.0 37.0 0.0
Máxima 11.9 82.0 1013.4 16.1 37.0 0.0
Mínima 2.2 69.0 1006.6
Total 0.0